Time,TemperatureF,DewpointF,PressureIn,WindDirection,WindDirectionDegrees,WindSpeedMPH,WindSpeedGustMPH,Humidity,HourlyPrecipIn,Conditions,Clouds,dailyrainin,SoftwareType,DateUTC
2013-03-01 08:03:00,30.9,23.0,25.93,NW,315,12.6,16.1,69,0.00,,,0.00,Rainwise IP-100,2013-03-01 15:03:00,
2013-03-01 08:08:00,31.3,23.0,25.93,WNW,292,12.6,20.3,68,0.00,,,0.00,Rainwise IP-100,2013-03-01 15:08:00,
2013-03-01 08:13:00,31.9,23.0,25.93,WNW,292,11.0,15.9,66,0.00,,,0.00,Rainwise IP-100,2013-03-01 15:13:00,
2013-03-01 08:18:00,32.3,23.0,25.93,NW,315,17.5,18.4,65,0.00,,,0.00,Rainwise IP-100,2013-03-01 15:18:00,
2013-03-01 08:23:00,32.7,23.0,25.93,NW,315,11.9,21.5,64,0.00,,,0.00,Rainwise IP-100,2013-03-01 15:23:00,
2013-03-01 08:28:00,32.8,23.0,25.93,NW,315,13.1,20.1,63,0.00,,,0.00,Rainwise IP-100,2013-03-01 15:28:00,
2013-03-01 08:33:00,32.7,23.0,25.93,WNW,292,10.0,20.5,62,0.00,,,0.00,Rainwise IP-100,2013-03-01 15:33:00,
2013-03-01 08:38:00,32.7,23.0,25.94,NW,315,14.5,18.0,61,0.00,,,0.00,Rainwise IP-100,2013-03-01 15:38:00,
2013-03-01 08:43:00,33.0,23.0,25.94,NW,315,12.4,20.1,61,0.00,,,0.00,Rainwise IP-100,2013-03-01 15:43:00,
2013-03-01 08:48:00,33.5,23.0,25.94,WNW,292,10.5,18.4,60,0.00,,,0.00,Rainwise IP-100,2013-03-01 15:48:00,
2013-03-01 08:53:00,34.3,23.0,25.94,NNW,337,11.7,19.1,59,0.00,,,0.00,Rainwise IP-100,2013-03-01 15:53:00,
2013-03-01 08:58:00,34.9,21.0,25.94,NNW,337,17.3,19.1,57,0.00,,,0.00,Rainwise IP-100,2013-03-01 15:58:00,
2013-03-01 09:03:00,35.5,23.0,25.94,NNW,337,13.8,20.8,55,0.00,,,0.00,Rainwise IP-100,2013-03-01 16:03:00,
2013-03-01 09:08:00,36.2,21.0,25.93,NW,315,18.0,20.1,54,0.00,,,0.00,Rainwise IP-100,2013-03-01 16:08:00,
2013-03-01 09:13:00,36.9,21.0,25.94,NW,315,13.1,20.8,52,0.00,,,0.00,Rainwise IP-100,2013-03-01 16:13:00,
2013-03-01 09:18:00,37.1,21.0,25.93,NNW,337,13.8,22.2,50,0.00,,,0.00,Rainwise IP-100,2013-03-01 16:18:00,
2013-03-01 09:23:00,37.4,21.0,25.94,WNW,292,8.4,16.8,49,0.00,,,0.00,Rainwise IP-100,2013-03-01 16:23:00,
2013-03-01 09:27:00,37.4,21.0,25.93,NW,315,17.3,19.8,49,0.00,,,0.00,Rainwise IP-100,2013-03-01 16:27:00,
2013-03-01 09:32:00,37.3,21.0,25.94,WNW,292,15.2,18.4,49,0.00,,,0.00,Rainwise IP-100,2013-03-01 16:32:00,
2013-03-01 09:37:00,37.5,21.0,25.94,WNW,292,18.4,21.9,49,0.00,,,0.00,Rainwise IP-100,2013-03-01 16:37:00,
2013-03-01 09:42:00,38.1,21.0,25.93,NW,315,18.9,21.9,48,0.00,,,0.00,Rainwise IP-100,2013-03-01 16:42:00,
2013-03-01 09:45:00,38.3,21.0,25.93,NNW,337,11.7,21.9,47,0.00,,,0.00,Rainwise IP-100,2013-03-01 16:45:00,
2013-03-01 09:50:00,39.0,21.0,25.93,WNW,292,14.7,24.5,46,0.00,,,0.00,Rainwise IP-100,2013-03-01 16:50:00,
2013-03-01 09:55:00,39.4,21.0,25.93,WNW,292,12.4,23.1,44,0.00,,,0.00,Rainwise IP-100,2013-03-01 16:55:00,
2013-03-01 10:00:00,39.8,21.0,25.93,NNW,337,14.9,24.5,43,0.00,,,0.00,Rainwise IP-100,2013-03-01 17:00:00,
2013-03-01 10:05:00,40.5,21.0,25.93,NNW,337,8.9,24.9,42,0.00,,,0.00,Rainwise IP-100,2013-03-01 17:05:00,
2013-03-01 10:10:00,41.2,21.0,25.93,NNW,337,19.1,24.2,41,0.00,,,0.00,Rainwise IP-100,2013-03-01 17:10:00,
2013-03-01 10:15:00,41.5,21.0,25.94,NNW,337,6.5,24.9,40,0.00,,,0.00,Rainwise IP-100,2013-03-01 17:15:00,
2013-03-01 10:20:00,41.8,21.0,25.93,NNW,337,14.0,26.3,39,0.00,,,0.00,Rainwise IP-100,2013-03-01 17:20:00,
2013-03-01 10:25:00,42.0,21.0,25.93,NNW,337,9.6,28.2,39,0.00,,,0.00,Rainwise IP-100,2013-03-01 17:25:00,
2013-03-01 10:30:00,42.1,18.0,25.93,NNW,337,12.6,30.3,38,0.00,,,0.00,Rainwise IP-100,2013-03-01 17:30:00,
2013-03-01 10:35:00,42.3,18.0,25.93,North,360,20.8,28.2,38,0.00,,,0.00,Rainwise IP-100,2013-03-01 17:35:00,
2013-03-01 10:40:00,42.8,18.0,25.92,NNW,337,18.0,29.1,37,0.00,,,0.00,Rainwise IP-100,2013-03-01 17:40:00,
2013-03-01 10:45:00,43.0,18.0,25.93,NNW,337,23.8,29.1,36,0.00,,,0.00,Rainwise IP-100,2013-03-01 17:45:00,
2013-03-01 10:50:00,42.7,18.0,25.93,NNW,337,13.3,30.1,36,0.00,,,0.00,Rainwise IP-100,2013-03-01 17:50:00,
2013-03-01 10:55:00,42.8,18.0,25.93,North,360,27.0,35.0,36,0.00,,,0.00,Rainwise IP-100,2013-03-01 17:55:00,
2013-03-01 11:00:00,42.9,18.0,25.92,NNW,337,23.6,32.4,35,0.00,,,0.00,Rainwise IP-100,2013-03-01 18:00:00,
2013-03-01 11:05:00,43.0,18.0,25.93,NNW,337,11.4,38.2,35,0.00,,,0.00,Rainwise IP-100,2013-03-01 18:05:00,
2013-03-01 11:10:00,43.2,18.0,25.92,North,360,24.2,31.2,35,0.00,,,0.00,Rainwise IP-100,2013-03-01 18:10:00,
2013-03-01 11:15:00,43.4,18.0,25.93,NNW,337,25.9,29.6,35,0.00,,,0.00,Rainwise IP-100,2013-03-01 18:15:00,
2013-03-01 11:20:00,43.7,18.0,25.92,North,360,11.7,31.7,35,0.00,,,0.00,Rainwise IP-100,2013-03-01 18:20:00,
2013-03-01 11:25:00,43.7,18.0,25.92,NNW,337,22.6,31.7,35,0.00,,,0.00,Rainwise IP-100,2013-03-01 18:25:00,
2013-03-01 11:30:00,43.8,18.0,25.92,NNW,337,15.2,31.7,34,0.00,,,0.00,Rainwise IP-100,2013-03-01 18:30:00,
2013-03-01 11:35:00,43.9,18.0,25.92,NNW,337,15.6,30.1,34,0.00,,,0.00,Rainwise IP-100,2013-03-01 18:35:00,
2013-03-01 11:40:00,44.0,18.0,25.91,NNW,337,19.8,26.3,34,0.00,,,0.00,Rainwise IP-100,2013-03-01 18:40:00,
2013-03-01 11:45:00,44.0,18.0,25.92,NNW,337,11.0,39.2,34,0.00,,,0.00,Rainwise IP-100,2013-03-01 18:45:00,
2013-03-01 11:50:00,43.7,18.0,25.92,NNW,337,7.9,32.2,34,0.00,,,0.00,Rainwise IP-100,2013-03-01 18:50:00,
2013-03-01 11:55:00,44.2,18.0,25.92,NNW,337,7.2,26.3,34,0.00,,,0.00,Rainwise IP-100,2013-03-01 18:55:00,
2013-03-01 12:00:00,44.8,18.0,25.92,NW,315,18.9,30.5,34,0.00,,,0.00,Rainwise IP-100,2013-03-01 19:00:00,
2013-03-01 12:05:00,44.8,18.0,25.91,North,360,16.1,28.2,33,0.00,,,0.00,Rainwise IP-100,2013-03-01 19:05:00,
2013-03-01 12:10:00,44.8,18.0,25.91,North,360,14.0,30.3,33,0.00,,,0.00,Rainwise IP-100,2013-03-01 19:10:00,
2013-03-01 12:15:00,45.3,18.0,25.91,NNW,337,24.7,31.0,33,0.00,,,0.00,Rainwise IP-100,2013-03-01 19:15:00,
2013-03-01 12:20:00,45.5,18.0,25.91,North,360,28.9,37.8,33,0.00,,,0.00,Rainwise IP-100,2013-03-01 19:20:00,
2013-03-01 12:25:00,45.3,18.0,25.91,NNW,337,14.9,36.4,33,0.00,,,0.00,Rainwise IP-100,2013-03-01 19:25:00,
2013-03-01 12:30:00,45.6,18.0,25.91,WNW,292,13.1,31.9,32,0.00,,,0.00,Rainwise IP-100,2013-03-01 19:30:00,
2013-03-01 12:35:00,45.8,18.0,25.90,NNW,337,20.3,37.8,32,0.00,,,0.00,Rainwise IP-100,2013-03-01 19:35:00,
2013-03-01 12:40:00,45.7,18.0,25.90,NNW,337,15.6,31.9,31,0.00,,,0.00,Rainwise IP-100,2013-03-01 19:40:00,
2013-03-01 12:45:00,45.8,18.0,25.90,NNW,337,22.9,33.8,32,0.00,,,0.00,Rainwise IP-100,2013-03-01 19:45:00,
2013-03-01 12:50:00,46.0,18.0,25.90,NNW,337,28.9,31.7,32,0.00,,,0.00,Rainwise IP-100,2013-03-01 19:50:00,
2013-03-01 12:55:00,45.8,18.0,25.89,NNW,337,20.8,34.7,32,0.00,,,0.00,Rainwise IP-100,2013-03-01 19:55:00,
2013-03-01 13:00:00,46.2,18.0,25.90,North,360,10.7,32.4,32,0.00,,,0.00,Rainwise IP-100,2013-03-01 20:00:00,
2013-03-01 13:05:00,46.5,18.0,25.89,NNW,337,18.7,32.4,32,0.00,,,0.00,Rainwise IP-100,2013-03-01 20:05:00,
2013-03-01 13:10:00,46.4,18.0,25.89,NNW,337,11.4,26.6,32,0.00,,,0.00,Rainwise IP-100,2013-03-01 20:10:00,
2013-03-01 13:15:00,46.8,18.0,25.89,NE,45,15.2,28.7,32,0.00,,,0.00,Rainwise IP-100,2013-03-01 20:15:00,
2013-03-01 13:20:00,47.2,18.0,25.89,NNW,337,13.3,32.2,32,0.00,,,0.00,Rainwise IP-100,2013-03-01 20:20:00,
2013-03-01 13:25:00,46.9,18.0,25.89,NNW,337,26.6,28.4,31,0.00,,,0.00,Rainwise IP-100,2013-03-01 20:25:00,
2013-03-01 13:30:00,46.9,18.0,25.88,NNW,337,18.7,33.1,31,0.00,,,0.00,Rainwise IP-100,2013-03-01 20:30:00,
2013-03-01 13:35:00,47.2,18.0,25.88,NNW,337,29.1,31.2,31,0.00,,,0.00,Rainwise IP-100,2013-03-01 20:35:00,
2013-03-01 13:40:00,47.2,18.0,25.89,NNW,337,18.2,31.7,30,0.00,,,0.00,Rainwise IP-100,2013-03-01 20:40:00,
2013-03-01 13:45:00,47.1,18.0,25.88,NNW,337,13.3,30.5,31,0.00,,,0.00,Rainwise IP-100,2013-03-01 20:45:00,
2013-03-01 13:50:00,47.1,18.0,25.87,NNW,337,11.7,26.3,31,0.00,,,0.00,Rainwise IP-100,2013-03-01 20:50:00,
2013-03-01 13:55:00,46.9,18.0,25.87,NNW,337,23.6,29.4,31,0.00,,,0.00,Rainwise IP-100,2013-03-01 20:55:00,
2013-03-01 14:00:00,46.4,18.0,25.88,NNW,337,28.7,32.9,32,0.00,,,0.00,Rainwise IP-100,2013-03-01 21:00:00,
2013-03-01 14:05:00,45.9,18.0,25.88,WNW,292,3.3,34.7,32,0.00,,,0.00,Rainwise IP-100,2013-03-01 21:05:00,
2013-03-01 14:10:00,46.3,18.0,25.88,NNW,337,18.9,28.9,32,0.00,,,0.00,Rainwise IP-100,2013-03-01 21:10:00,
2013-03-01 14:15:00,46.7,18.0,25.88,NW,315,3.7,31.0,31,0.00,,,0.00,Rainwise IP-100,2013-03-01 21:15:00,
2013-03-01 14:20:00,46.2,18.0,25.88,North,360,21.7,30.1,31,0.00,,,0.00,Rainwise IP-100,2013-03-01 21:20:00,
2013-03-01 14:25:00,45.5,18.0,25.88,NNW,337,11.7,31.9,32,0.00,,,0.00,Rainwise IP-100,2013-03-01 21:25:00,
2013-03-01 14:30:00,45.4,18.0,25.88,NNW,337,20.5,29.4,32,0.00,,,0.00,Rainwise IP-100,2013-03-01 21:30:00,
2013-03-01 14:35:00,45.9,18.0,25.87,NNW,337,23.8,28.7,32,0.00,,,0.00,Rainwise IP-100,2013-03-01 21:35:00,
2013-03-01 14:40:00,45.9,18.0,25.87,NNW,337,20.3,29.4,32,0.00,,,0.00,Rainwise IP-100,2013-03-01 21:40:00,
2013-03-01 14:45:00,46.2,18.0,25.88,NNW,337,9.1,32.4,33,0.00,,,0.00,Rainwise IP-100,2013-03-01 21:45:00,
2013-03-01 14:50:00,46.6,21.0,25.88,NNW,337,26.8,26.8,33,0.00,,,0.00,Rainwise IP-100,2013-03-01 21:50:00,
2013-03-01 14:55:00,46.7,21.0,25.87,NNW,337,23.1,28.9,33,0.00,,,0.00,Rainwise IP-100,2013-03-01 21:55:00,
2013-03-01 15:00:00,46.6,21.0,25.88,NNW,337,10.7,30.5,33,0.00,,,0.00,Rainwise IP-100,2013-03-01 22:00:00,
2013-03-01 15:05:00,46.5,21.0,25.87,NNW,337,12.4,31.7,33,0.00,,,0.00,Rainwise IP-100,2013-03-01 22:05:00,
2013-03-01 15:10:00,46.5,21.0,25.87,North,360,13.5,31.7,33,0.00,,,0.00,Rainwise IP-100,2013-03-01 22:10:00,
2013-03-01 15:15:00,46.5,21.0,25.88,NW,315,9.3,28.9,33,0.00,,,0.00,Rainwise IP-100,2013-03-01 22:15:00,
2013-03-01 15:20:00,46.5,21.0,25.88,NNW,337,16.1,35.4,33,0.00,,,0.00,Rainwise IP-100,2013-03-01 22:20:00,
2013-03-01 15:25:00,45.9,21.0,25.87,NNW,337,9.8,29.4,34,0.00,,,0.00,Rainwise IP-100,2013-03-01 22:25:00,
2013-03-01 15:30:00,45.8,21.0,25.88,North,360,18.2,31.0,34,0.00,,,0.00,Rainwise IP-100,2013-03-01 22:30:00,
2013-03-01 15:35:00,46.0,18.0,25.87,NNW,337,8.9,32.2,33,0.00,,,0.00,Rainwise IP-100,2013-03-01 22:35:00,
2013-03-01 15:40:00,45.9,18.0,25.88,North,360,16.3,30.3,32,0.00,,,0.00,Rainwise IP-100,2013-03-01 22:40:00,
2013-03-01 15:45:00,45.9,18.0,25.88,ENE,67,7.0,32.4,33,0.00,,,0.00,Rainwise IP-100,2013-03-01 22:45:00,
2013-03-01 15:50:00,46.3,18.0,25.89,NNE,22,17.0,24.5,33,0.00,,,0.00,Rainwise IP-100,2013-03-01 22:50:00,
2013-03-01 15:55:00,46.5,21.0,25.88,NNW,337,21.7,26.1,33,0.00,,,0.00,Rainwise IP-100,2013-03-01 22:55:00,
2013-03-01 16:00:00,46.5,21.0,25.88,NNW,337,14.7,27.7,33,0.00,,,0.00,Rainwise IP-100,2013-03-01 23:00:00,
2013-03-01 16:05:00,46.4,18.0,25.89,NNE,22,6.3,28.4,33,0.00,,,0.00,Rainwise IP-100,2013-03-01 23:05:00,
2013-03-01 16:10:00,46.3,18.0,25.89,NNW,337,8.9,23.3,33,0.00,,,0.00,Rainwise IP-100,2013-03-01 23:10:00,
2013-03-01 16:15:00,46.2,18.0,25.89,NNW,337,18.9,25.2,33,0.00,,,0.00,Rainwise IP-100,2013-03-01 23:15:00,
2013-03-01 16:20:00,45.9,21.0,25.89,North,360,25.2,32.4,34,0.00,,,0.00,Rainwise IP-100,2013-03-01 23:20:00,
2013-03-01 16:25:00,45.2,18.0,25.90,North,360,7.7,30.8,34,0.00,,,0.00,Rainwise IP-100,2013-03-01 23:25:00,
2013-03-01 16:30:00,44.8,21.0,25.90,NNW,337,15.4,27.3,35,0.00,,,0.00,Rainwise IP-100,2013-03-01 23:30:00,
2013-03-01 16:36:00,44.4,18.0,25.89,NNW,337,21.5,27.0,36,0.00,,,0.00,Rainwise IP-100,2013-03-01 23:36:00,
2013-03-01 16:40:00,44.1,21.0,25.90,NNW,337,15.6,25.2,37,0.00,,,0.00,Rainwise IP-100,2013-03-01 23:40:00,
2013-03-01 16:45:00,43.8,21.0,25.90,NNW,337,16.6,23.8,38,0.00,,,0.00,Rainwise IP-100,2013-03-01 23:45:00,
2013-03-01 16:50:00,43.4,21.0,25.90,NNE,22,11.7,24.2,39,0.00,,,0.00,Rainwise IP-100,2013-03-01 23:50:00,
2013-03-01 16:55:00,43.2,21.0,25.90,NNW,337,14.5,20.1,39,0.00,,,0.00,Rainwise IP-100,2013-03-01 23:55:00,
2013-03-01 17:00:00,43.3,21.0,25.91,NNE,22,11.0,19.6,40,0.00,,,0.00,Rainwise IP-100,2013-03-02 00:00:00,
2013-03-01 17:05:00,43.3,21.0,25.90,North,360,14.5,20.1,40,0.00,,,0.00,Rainwise IP-100,2013-03-02 00:05:00,
2013-03-01 17:10:00,43.1,21.0,25.90,North,360,17.5,21.5,40,0.00,,,0.00,Rainwise IP-100,2013-03-02 00:10:00,
2013-03-01 17:15:00,43.0,21.0,25.90,NNW,337,18.4,21.7,40,0.00,,,0.00,Rainwise IP-100,2013-03-02 00:15:00,
2013-03-01 17:20:00,42.8,21.0,25.91,North,360,11.4,23.3,40,0.00,,,0.00,Rainwise IP-100,2013-03-02 00:20:00,
2013-03-01 17:26:00,42.6,21.0,25.91,North,360,15.4,24.0,40,0.00,,,0.00,Rainwise IP-100,2013-03-02 00:26:00,
2013-03-01 17:31:00,42.2,21.0,25.91,NNE,22,8.4,18.2,41,0.00,,,0.00,Rainwise IP-100,2013-03-02 00:31:00,
2013-03-01 17:36:00,41.8,23.0,25.92,North,360,6.3,14.9,43,0.00,,,0.00,Rainwise IP-100,2013-03-02 00:36:00,
2013-03-01 17:41:00,41.4,21.0,25.92,NNE,22,6.3,10.5,44,0.00,,,0.00,Rainwise IP-100,2013-03-02 00:41:00,
2013-03-01 17:46:00,41.0,23.0,25.92,NNE,22,7.9,17.7,46,0.00,,,0.00,Rainwise IP-100,2013-03-02 00:46:00,
2013-03-01 17:51:00,40.8,23.0,25.92,North,360,9.6,17.0,46,0.00,,,0.00,Rainwise IP-100,2013-03-02 00:51:00,
2013-03-01 17:56:00,40.5,23.0,25.92,North,360,7.7,17.5,45,0.00,,,0.00,Rainwise IP-100,2013-03-02 00:56:00,
2013-03-01 18:01:00,40.2,21.0,25.92,NNW,337,8.9,14.5,45,0.00,,,0.00,Rainwise IP-100,2013-03-02 01:01:00,
2013-03-01 18:06:00,39.8,23.0,25.93,North,360,9.8,11.7,46,0.00,,,0.00,Rainwise IP-100,2013-03-02 01:06:00,
2013-03-01 18:11:00,39.4,21.0,25.93,NNW,337,9.3,11.7,47,0.00,,,0.00,Rainwise IP-100,2013-03-02 01:11:00,
2013-03-01 18:16:00,39.1,23.0,25.93,NNW,337,8.2,11.9,48,0.00,,,0.00,Rainwise IP-100,2013-03-02 01:16:00,
2013-03-01 18:21:00,38.9,23.0,25.94,NNW,337,10.7,13.1,48,0.00,,,0.00,Rainwise IP-100,2013-03-02 01:21:00,
2013-03-01 18:26:00,38.5,23.0,25.94,NNE,22,7.5,12.1,49,0.00,,,0.00,Rainwise IP-100,2013-03-02 01:26:00,
2013-03-01 18:31:00,38.2,23.0,25.94,North,360,9.3,15.4,50,0.00,,,0.00,Rainwise IP-100,2013-03-02 01:31:00,
2013-03-01 18:36:00,38.0,23.0,25.94,North,360,9.3,11.9,51,0.00,,,0.00,Rainwise IP-100,2013-03-02 01:36:00,
2013-03-01 18:41:00,37.5,23.0,25.93,NNW,337,10.3,12.8,52,0.00,,,0.00,Rainwise IP-100,2013-03-02 01:41:00,
2013-03-01 18:46:00,37.0,23.0,25.93,NNW,337,12.1,13.3,53,0.00,,,0.00,Rainwise IP-100,2013-03-02 01:46:00,
2013-03-01 18:51:00,36.7,23.0,25.94,NNW,337,11.7,14.7,54,0.00,,,0.00,Rainwise IP-100,2013-03-02 01:51:00,
2013-03-01 18:56:00,36.5,23.0,25.94,NNW,337,3.7,14.5,55,0.00,,,0.00,Rainwise IP-100,2013-03-02 01:56:00,
2013-03-01 19:01:00,36.2,23.0,25.94,NW,315,6.1,11.0,55,0.00,,,0.00,Rainwise IP-100,2013-03-02 02:01:00,
2013-03-01 19:06:00,35.7,23.0,25.93,NNW,337,9.1,9.3,56,0.00,,,0.00,Rainwise IP-100,2013-03-02 02:06:00,
2013-03-01 19:11:00,35.4,21.0,25.93,NNW,337,8.2,10.7,57,0.00,,,0.00,Rainwise IP-100,2013-03-02 02:11:00,
2013-03-01 19:16:00,35.1,21.0,25.93,NNW,337,10.7,10.7,57,0.00,,,0.00,Rainwise IP-100,2013-03-02 02:16:00,
2013-03-01 19:21:00,34.8,23.0,25.94,NNW,337,6.8,11.2,58,0.00,,,0.00,Rainwise IP-100,2013-03-02 02:21:00,
2013-03-01 19:26:00,34.2,23.0,25.94,NW,315,7.2,10.7,59,0.00,,,0.00,Rainwise IP-100,2013-03-02 02:26:00,
2013-03-01 19:31:00,33.8,23.0,25.93,NNE,22,7.0,11.2,59,0.00,,,0.00,Rainwise IP-100,2013-03-02 02:31:00,
2013-03-01 19:36:00,33.7,23.0,25.93,NNW,337,7.2,12.4,60,0.00,,,0.00,Rainwise IP-100,2013-03-02 02:36:00,
2013-03-01 19:41:00,33.7,23.0,25.93,NNW,337,7.5,12.1,61,0.00,,,0.00,Rainwise IP-100,2013-03-02 02:41:00,
2013-03-01 19:46:00,33.7,23.0,25.94,NW,315,7.2,11.0,61,0.00,,,0.00,Rainwise IP-100,2013-03-02 02:46:00,
2013-03-01 19:51:00,33.4,23.0,25.94,NNW,337,9.8,9.8,61,0.00,,,0.00,Rainwise IP-100,2013-03-02 02:51:00,
2013-03-01 19:56:00,33.0,23.0,25.94,NW,315,5.1,9.8,62,0.00,,,0.00,Rainwise IP-100,2013-03-02 02:56:00,
2013-03-01 20:01:00,32.6,23.0,25.94,NW,315,7.5,8.9,63,0.00,,,0.00,Rainwise IP-100,2013-03-02 03:01:00,
2013-03-01 20:06:00,32.1,23.0,25.94,NW,315,5.4,9.3,64,0.00,,,0.00,Rainwise IP-100,2013-03-02 03:06:00,
2013-03-01 20:11:00,31.8,23.0,25.94,NW,315,5.1,9.6,65,0.00,,,0.00,Rainwise IP-100,2013-03-02 03:11:00,
2013-03-01 20:16:00,31.7,23.0,25.94,NW,315,5.1,8.4,66,0.00,,,0.00,Rainwise IP-100,2013-03-02 03:16:00,
2013-03-01 20:21:00,31.2,21.0,25.94,NW,315,3.3,7.5,66,0.00,,,0.00,Rainwise IP-100,2013-03-02 03:21:00,
2013-03-01 20:26:00,30.5,21.0,25.94,WNW,292,5.4,6.5,67,0.00,,,0.00,Rainwise IP-100,2013-03-02 03:26:00,
2013-03-01 20:31:00,30.0,23.0,25.94,WNW,292,4.2,6.8,68,0.00,,,0.00,Rainwise IP-100,2013-03-02 03:31:00,
2013-03-01 20:36:00,30.0,23.0,25.94,WNW,292,5.4,6.5,69,0.00,,,0.00,Rainwise IP-100,2013-03-02 03:36:00,
2013-03-01 20:41:00,29.9,23.0,25.94,WNW,292,7.0,7.7,69,0.00,,,0.00,Rainwise IP-100,2013-03-02 03:41:00,
2013-03-01 20:46:00,29.4,21.0,25.94,WNW,292,5.4,8.2,69,0.00,,,0.00,Rainwise IP-100,2013-03-02 03:46:00,
2013-03-01 20:51:00,29.1,21.0,25.94,West,270,3.3,7.0,70,0.00,,,0.00,Rainwise IP-100,2013-03-02 03:51:00,
2013-03-01 20:56:00,29.0,21.0,25.94,WNW,292,7.0,9.8,71,0.00,,,0.00,Rainwise IP-100,2013-03-02 03:56:00,
2013-03-01 21:01:00,28.7,23.0,25.94,West,270,6.3,8.4,72,0.00,,,0.00,Rainwise IP-100,2013-03-02 04:01:00,
2013-03-01 21:06:00,28.9,23.0,25.94,WNW,292,5.8,7.2,72,0.00,,,0.00,Rainwise IP-100,2013-03-02 04:06:00,
2013-03-01 21:11:00,29.3,23.0,25.94,WNW,292,3.0,7.7,73,0.00,,,0.00,Rainwise IP-100,2013-03-02 04:11:00,
2013-03-01 21:16:00,29.3,23.0,25.94,WNW,292,3.3,4.4,73,0.00,,,0.00,Rainwise IP-100,2013-03-02 04:16:00,
2013-03-01 21:21:00,29.1,23.0,25.94,West,270,4.4,5.4,73,0.00,,,0.00,Rainwise IP-100,2013-03-02 04:21:00,
2013-03-01 21:26:00,28.8,23.0,25.94,West,270,4.2,6.5,74,0.00,,,0.00,Rainwise IP-100,2013-03-02 04:26:00,
2013-03-01 21:31:00,28.4,21.0,25.94,WNW,292,7.7,7.7,74,0.00,,,0.00,Rainwise IP-100,2013-03-02 04:31:00,
2013-03-01 21:36:00,28.1,21.0,25.94,WSW,247,6.5,8.2,75,0.00,,,0.00,Rainwise IP-100,2013-03-02 04:36:00,
2013-03-01 21:41:00,28.1,21.0,25.94,WSW,247,3.5,7.0,75,0.00,,,0.00,Rainwise IP-100,2013-03-02 04:41:00,
2013-03-01 21:46:00,28.4,21.0,25.94,WSW,247,4.2,7.5,76,0.00,,,0.00,Rainwise IP-100,2013-03-02 04:46:00,
2013-03-01 21:51:00,28.8,23.0,25.93,West,270,1.6,6.3,76,0.00,,,0.00,Rainwise IP-100,2013-03-02 04:51:00,
2013-03-01 21:56:00,29.1,23.0,25.94,West,270,3.0,5.8,76,0.00,,,0.00,Rainwise IP-100,2013-03-02 04:56:00,
2013-03-01 22:00:00,29.3,23.0,25.94,West,270,3.7,6.1,76,0.00,,,0.00,Rainwise IP-100,2013-03-02 05:00:00,
2013-03-01 22:05:00,29.5,24.0,25.94,WSW,247,4.0,6.5,75,0.00,,,0.00,Rainwise IP-100,2013-03-02 05:05:00,
2013-03-01 22:10:00,29.5,24.0,25.93,West,270,4.2,6.8,75,0.00,,,0.00,Rainwise IP-100,2013-03-02 05:10:00,
2013-03-01 22:15:00,29.4,23.0,25.93,West,270,2.3,7.0,75,0.00,,,0.00,Rainwise IP-100,2013-03-02 05:15:00,
2013-03-01 22:20:00,29.3,23.0,25.94,WSW,247,6.1,6.8,75,0.00,,,0.00,Rainwise IP-100,2013-03-02 05:20:00,
2013-03-01 22:25:00,29.4,23.0,25.94,West,270,6.8,7.5,76,0.00,,,0.00,Rainwise IP-100,2013-03-02 05:25:00,
2013-03-01 22:30:00,29.6,24.0,25.94,West,270,6.5,8.9,76,0.00,,,0.00,Rainwise IP-100,2013-03-02 05:30:00,
2013-03-01 22:35:00,29.7,24.0,25.94,WSW,247,10.0,10.5,76,0.00,,,0.00,Rainwise IP-100,2013-03-02 05:35:00,
2013-03-01 22:40:00,29.4,23.0,25.94,WSW,247,9.3,10.7,76,0.00,,,0.00,Rainwise IP-100,2013-03-02 05:40:00,
2013-03-01 22:45:00,29.1,23.0,25.94,WNW,292,4.9,9.3,76,0.00,,,0.00,Rainwise IP-100,2013-03-02 05:45:00,
2013-03-01 22:50:00,28.9,23.0,25.95,WNW,292,6.5,7.2,77,0.00,,,0.00,Rainwise IP-100,2013-03-02 05:50:00,
2013-03-01 22:55:00,28.4,23.0,25.94,WSW,247,7.0,7.0,78,0.00,,,0.00,Rainwise IP-100,2013-03-02 05:55:00,
2013-03-01 23:00:00,27.9,23.0,25.94,WNW,292,3.5,7.0,79,0.00,,,0.00,Rainwise IP-100,2013-03-02 06:00:00,
2013-03-01 23:05:00,27.6,23.0,25.94,NW,315,3.0,6.3,79,0.00,,,0.00,Rainwise IP-100,2013-03-02 06:05:00,
2013-03-01 23:10:00,27.0,23.0,25.94,WNW,292,2.6,5.6,80,0.00,,,0.00,Rainwise IP-100,2013-03-02 06:10:00,
2013-03-01 23:15:00,26.5,23.0,25.94,West,270,3.0,7.2,81,0.00,,,0.00,Rainwise IP-100,2013-03-02 06:15:00,
2013-03-01 23:20:00,26.8,23.0,25.94,NW,315,3.3,6.1,82,0.00,,,0.00,Rainwise IP-100,2013-03-02 06:20:00,
2013-03-01 23:25:00,27.6,23.0,25.94,WNW,292,4.0,8.2,83,0.00,,,0.00,Rainwise IP-100,2013-03-02 06:25:00,
2013-03-01 23:30:00,28.7,24.0,25.94,West,270,5.4,7.2,83,0.00,,,0.00,Rainwise IP-100,2013-03-02 06:30:00,
2013-03-01 23:35:00,29.8,26.0,25.94,West,270,3.5,10.5,82,0.00,,,0.00,Rainwise IP-100,2013-03-02 06:35:00,
2013-03-01 23:40:00,30.5,26.0,25.94,WNW,292,6.1,8.9,81,0.00,,,0.00,Rainwise IP-100,2013-03-02 06:40:00,
2013-03-01 23:45:00,30.9,26.0,25.94,WNW,292,4.9,9.3,80,0.00,,,0.00,Rainwise IP-100,2013-03-02 06:45:00,
2013-03-01 23:50:00,31.2,26.0,25.94,WNW,292,4.4,8.6,80,0.00,,,0.00,Rainwise IP-100,2013-03-02 06:50:00,
2013-03-01 23:55:00,31.4,26.0,25.94,WNW,292,8.2,8.4,80,0.00,,,0.00,Rainwise IP-100,2013-03-02 06:55:00,